User: anonymous   Login
Location: Caltech
(34.1382°N, 118.1253°W)
Time: 08:30:21
(UTC-08:00)
Language:

Meteor 1-11 Rocket - Orbit

View from above orbital plane
View from above orbital plane
View from above satellite
View from above satellite

Ground track
Ground track

The orbit data is extracted from the following two-line orbital elements,

1 05918U 72022B   15060.50692038  .00000046  00000-0  20208-4 0  9997
2 05918 081.2348 057.1565 0058702 162.5402 197.7803 14.05752960200165
Epoch (UTC): 01 March 2015 12:09:57
Eccentricity: 0.0058702
inclination: 81.2348°
perigee height: 831 km
apogee height: 916 km
right ascension of ascending node: 57.1565°
argument of perigee: 162.5402°
revolutions per day: 14.05752960
mean anomaly at epoch: 197.7803°
orbit number at epoch: 20016

The dashed part of the orbit path shows where the satellite is in the earth's shadow,  

DLR